[[{"header":{"parameterUnit":"m.s-1","parameterCategory":1,"la1":30.2991,"la2":30.254,"lo1":-89.0895,"lo2":-89.0444,"dy":0.0017,"dx":0.0017,"nx":28,"ny":28,"refTime":"2024-12-15T09:00:00:Z","depth":0,"parameterNumber":2,"parameterNumberName":"U-component_of_WINDS"},"data":[0,0,0,0,0,0,0,0,0,0,0,0,0,0,0,0,0,0,0,0,0,0,0,0,0,0,0,0,0,0,0,0,0,0,0,0,0,0,0,0,0,0,0,0,0,0,0,0,0,0,0,0,0,0,0,0,0,0,-3.3504,-3.3504,0,-3.3544,-3.3544,-3.3545,-3.3507,-3.3506,-3.3504,-3.3503,-3.3544,-3.3546,-3.3548,0,0,0,0,0,0,0,0,0,0,0,0,0,-3.3396,-3.3398,-3.3504,-3.3504,-3.3505,-3.3544,-3.3544,-3.3545,-3.3508,-3.3506,-3.3504,-3.3502,-3.3543,-3.3546,-3.3549,0,0,0,0,0,0,0,0,0,0,0,0,0,-3.344,-3.3399,-3.3504,-3.3491,-3.349,-3.3543,-3.3544,-3.3545,-3.3508,-3.3506,-3.3503,-3.3501,-3.3542,-3.3545,-3.3549,-3.3617,0,0,-3.356,-3.3562,0,0,0,0,0,0,0,0,-3.3438,-3.3444,-3.3492,-3.3492,-3.3491,-3.3518,-3.3521,-3.3569,-3.3509,-3.3501,-3.3503,-3.35,-3.3537,-3.3541,-3.3553,-3.3619,-3.362,-3.3561,-3.3563,-3.3565,-3.3566,0,0,0,0,0,0,0,-3.3435,-3.3442,-3.3519,-3.3493,-3.3492,-3.3483,-3.3487,-3.353,-3.3531,-3.3502,-3.3499,-3.3504,-3.3536,-3.355,-3.3554,-3.3621,-3.3561,-3.3564,-3.3566,-3.3568,-3.3745,-3.3747,0,0,0,0,0,0,-3.3433,-3.344,-3.3518,-3.3521,-3.3458,-3.3487,-3.3491,-3.3512,-3.3531,-3.3531,-3.3506,-3.3502,-3.3545,-3.355,-3.3555,-3.3636,-3.3565,-3.3568,-3.357,-3.3742,-3.3745,-3.3748,0,0,0,0,0,0,-3.3431,-3.344,-3.3517,-3.348,-3.3489,-3.3491,-3.3515,-3.3514,-3.3527,-3.3534,-3.3534,-3.352,-3.3543,-3.355,-3.3602,-3.3637,-3.357,-3.3573,-3.374,-3.3743,-3.3747,-3.3798,0,0,0,0,0,0,-3.3428,-3.344,-3.3465,-3.3481,-3.3491,-3.3563,-3.3517,-3.3516,-3.3534,-3.3529,-3.3547,-3.3548,-3.3542,-3.3597,-3.3606,-3.3641,-3.3576,-3.3736,-3.3741,-3.3746,-3.3793,-3.3803,-3.3812,0,0,0,0,0,-3.3424,-3.3478,-3.3467,-3.3476,-3.3523,-3.3565,-3.3571,-3.3563,-3.3537,-3.3563,-3.3567,-3.3547,-3.3632,-3.3602,-3.3612,-3.3649,-3.3734,-3.374,-3.3745,-3.3789,-3.3801,-3.3811,0,0,0,0,0,0,-3.3466,-3.348,-3.3467,-3.3528,-3.3545,-3.3558,-3.359,-3.3576,-3.3601,-3.3596,-3.3585,-3.3589,-3.3644,-3.3652,-3.3619,-3.3716,-3.3679,-3.3687,-3.3709,-3.372,-3.3729,-3.3726,-3.3579,0,0,0,0,0,-3.3483,-3.3516,-3.3525,-3.3578,-3.3587,-3.3588,-3.3605,-3.3598,-3.3616,-3.3623,-3.3631,-3.365,-3.368,-3.3701,-3.3729,-3.3795,-3.3798,-3.3825,-3.3834,-3.3841,-3.3848,-3.3884,-3.3896,-3.3766,-3.3766,-3.3766,0,0,-3.3516,-3.3528,-3.3549,-3.3586,-3.3599,-3.3634,-3.3594,-3.3632,-3.3657,-3.3629,-3.3678,-3.3686,-3.3705,-3.3764,-3.379,-3.3772,-3.3885,-3.3849,-3.3854,-3.3857,-3.3891,-3.3903,-3.3914,-3.377,-3.377,-3.3769,0,0,-3.3596,-3.3608,-3.3653,-3.3667,-3.3687,-3.3687,-3.3698,-3.3714,-3.3717,-3.3767,-3.3747,-3.3777,-3.383,-3.3845,-3.386,-3.3947,-3.3929,-3.3956,-3.4004,-3.4039,-3.4049,-3.4058,-3.4089,-3.41,-3.3963,-3.3963,-3.3963,0,-3.3635,-3.3686,-3.3678,-3.3718,-3.3735,-3.3711,-3.3757,-3.3771,-3.38,-3.3812,-3.3791,-3.3858,-3.387,-3.3932,-3.3953,-3.3966,-3.3978,-3.3954,-3.4048,-3.4057,-3.4065,-3.4095,-3.4106,-3.3967,-3.3966,-3.3966,-3.3966,0,-3.3734,-3.377,-3.3804,-3.3833,-3.3854,-3.3896,-3.3895,-3.3917,-3.3909,-3.3911,-3.3962,-3.3976,-3.4007,-3.4021,-3.4013,-3.4083,-3.4071,-3.4049,-3.4012,-3.4081,-3.4108,-3.4119,-3.3971,-3.397,-3.3969,-3.3968,0,0,-3.3839,-3.3864,-3.3877,-3.389,-3.3911,-3.3939,-3.3981,-3.4012,-3.4031,-3.4052,-3.4087,-3.4133,-3.4114,-3.4131,-3.4124,-3.4155,-3.4223,-3.4129,-3.4129,-3.4146,-3.4301,-3.4317,-3.433,-3.4212,-3.4214,-3.4216,-3.4299,0,-3.3919,-3.3992,-3.3986,-3.4055,-3.4089,-3.4068,-3.4104,-3.4122,-3.4126,-3.4155,-3.4159,-3.4192,-3.4163,-3.4173,-3.4203,-3.4208,-3.4254,-3.4202,-3.4244,-3.4246,-3.4239,-3.4344,-3.4361,-3.4439,-3.431,-3.4312,-3.4313,0,-3.4022,-3.4047,-3.4119,-3.4137,-3.415,-3.4183,-3.4212,-3.424,-3.4259,-3.426,-3.428,-3.4268,-3.4311,-3.4273,-3.4332,-3.4297,-3.4314,-3.432,-3.4323,-3.4326,-3.4283,-3.435,-3.4464,-3.4475,-3.433,-3.4329,-3.4327,0,-3.4091,-3.4143,-3.4194,-3.4206,-3.4227,-3.4251,-3.4261,-3.4278,-3.4297,-3.4322,-3.4335,-3.4365,-3.4381,-3.4404,-3.4401,-3.4374,-3.4461,-3.4423,-3.4463,-3.4463,-3.4482,-3.448,-3.4599,-3.4494,-3.4494,-3.4493,-3.4493,0,-3.4181,-3.4226,-3.4225,-3.4256,-3.4306,-3.43,-3.435,-3.4357,-3.4373,-3.4405,-3.4389,-3.4419,-3.4414,-3.4445,-3.4443,-3.4492,-3.45,-3.4501,-3.45,-3.4503,-3.4502,-3.4513,-3.4507,-3.4496,-3.4496,-3.4495,-3.4495,0,-3.4266,-3.4268,-3.4321,-3.4338,-3.4343,-3.4379,-3.4393,-3.4423,-3.4426,-3.4467,-3.4476,-3.4481,-3.4516,-3.4516,-3.4556,-3.4555,-3.4615,-3.4608,-3.4608,-3.4607,-3.4647,-3.4643,-3.4776,-3.4794,-3.4677,-3.4678,-3.4679,0,-3.4323,-3.4357,-3.4378,-3.4399,-3.441,-3.4443,-3.4463,-3.4459,-3.448,-3.4506,-3.4532,-3.4566,-3.4593,-3.465,-3.4658,-3.4689,-3.4682,-3.4727,-3.4686,-3.4688,-3.4682,-3.468,-3.4683,-3.4734,-3.4735,-3.4736,-3.4737,0,-3.4424,-3.4423,-3.4452,-3.4482,-3.4507,-3.453,-3.4552,-3.4569,-3.4567,-3.4592,-3.4628,-3.4649,-3.4691,-3.4725,-3.4755,-3.4765,-3.4751,-3.475,-3.4761,-3.4763,-3.4762,-3.4763,-3.4629,-3.4747,-3.4746,-3.4745,-3.4745,-3.4744,-3.4496,-3.4526,-3.4545,-3.4579,-3.4595,-3.4616,-3.4644,-3.4652,-3.4682,-3.4715,-3.4711,-3.4751,-3.4771,-3.481,-3.4823,-3.4855,-3.4839,-3.4855,-3.4859,-3.4863,-3.4867,-3.4758,-3.486,-3.486,-3.486,-3.486,-3.4859,0,-3.4596,-3.4607,-3.4638,-3.4669,-3.4696,-3.4681,-3.4705,-3.4728,-3.4764,-3.4783,-3.481,-3.4852,-3.4886,-3.4896,-3.4928,-3.4952,-3.4946,-3.496,-3.4958,-3.4961,-3.4879,-3.4866,-3.4964,-3.4964,-3.4964,-3.4964,-3.4964,-3.4964,-3.465,-3.47,-3.4702,-3.476,-3.4771,-3.4811,-3.4826,-3.4845,-3.4861,-3.4909,-3.4936,-3.4943,-3.4959,-3.4993,-3.5023,-3.5025,-3.5037,-3.5054,-3.5054,-3.4977,-3.4967,-3.4957,-3.4944,-3.5057,-3.5057,-3.5133,-3.5134,-3.5134]},{"header":{"parameterUnit":"m.s-1","parameterCategory":1,"la1":30.2991,"la2":30.254,"lo1":-89.0895,"lo2":-89.0444,"dy":0.0017,"dx":0.0017,"nx":28,"ny":28,"refTime":"2024-12-15T09:00:00:Z","depth":0,"parameterNumber":3,"parameterNumberName":"V-component_of_WINDS"},"data":[0,0,0,0,0,0,0,0,0,0,0,0,0,0,0,0,0,0,0,0,0,0,0,0,0,0,0,0,0,0,0,0,0,0,0,0,0,0,0,0,0,0,0,0,0,0,0,0,0,0,0,0,0,0,0,0,0,0,-0.1167,-0.1167,0,-0.1082,-0.1081,-0.1081,-0.0986,-0.0985,-0.0983,-0.0982,-0.0895,-0.0894,-0.0893,0,0,0,0,0,0,0,0,0,0,0,0,0,-0.1247,-0.1247,-0.1168,-0.1166,-0.1165,-0.1083,-0.1081,-0.108,-0.0986,-0.0985,-0.0983,-0.0982,-0.0895,-0.0894,-0.0893,0,0,0,0,0,0,0,0,0,0,0,0,0,-0.1193,-0.1246,-0.1168,-0.1109,-0.1102,-0.1083,-0.1081,-0.108,-0.0987,-0.0985,-0.0983,-0.0981,-0.0896,-0.0894,-0.0893,-0.0924,0,0,-0.0888,-0.0887,0,0,0,0,0,0,0,0,-0.1196,-0.119,-0.1118,-0.1113,-0.1106,-0.1043,-0.1078,-0.1028,-0.0987,-0.1031,-0.0982,-0.098,-0.0946,-0.094,-0.0929,-0.092,-0.0917,-0.0888,-0.0887,-0.0886,-0.0886,0,0,0,0,0,0,0,-0.12,-0.1193,-0.1134,-0.1117,-0.111,-0.1086,-0.1076,-0.1068,-0.1001,-0.1027,-0.102,-0.1011,-0.0942,-0.093,-0.0926,-0.0915,-0.0888,-0.0887,-0.0886,-0.0885,-0.0927,-0.0929,0,0,0,0,0,0,-0.1213,-0.1197,-0.1136,-0.1131,-0.1147,-0.1086,-0.1075,-0.1065,-0.1001,-0.0989,-0.1013,-0.1007,-0.0934,-0.0928,-0.0923,-0.0954,-0.0886,-0.0885,-0.0884,-0.0925,-0.0927,-0.093,0,0,0,0,0,0,-0.1215,-0.1208,-0.114,-0.1162,-0.1152,-0.1087,-0.1077,-0.1065,-0.1053,-0.099,-0.0978,-0.1013,-0.0932,-0.0925,-0.0924,-0.095,-0.0884,-0.0883,-0.0923,-0.0926,-0.0929,-0.1019,0,0,0,0,0,0,-0.1218,-0.121,-0.1221,-0.1163,-0.1151,-0.1144,-0.1078,-0.1064,-0.105,-0.1042,-0.0987,-0.0976,-0.093,-0.0927,-0.0923,-0.0947,-0.0881,-0.092,-0.0924,-0.0928,-0.1013,-0.1025,-0.1034,0,0,0,0,0,-0.1221,-0.125,-0.1222,-0.1216,-0.1164,-0.1146,-0.1138,-0.1085,-0.1053,-0.1064,-0.1023,-0.0978,-0.0948,-0.0928,-0.0922,-0.0946,-0.0918,-0.0923,-0.0927,-0.1009,-0.1023,-0.1034,0,0,0,0,0,0,-0.1314,-0.1242,-0.121,-0.1222,-0.1191,-0.113,-0.1142,-0.1101,-0.1078,-0.1071,-0.1005,-0.0994,-0.1001,-0.0973,-0.0952,-0.0972,-0.0926,-0.093,-0.099,-0.1003,-0.1013,-0.102,-0.088,0,0,0,0,0,-0.1336,-0.1327,-0.1264,-0.1281,-0.1267,-0.1207,-0.1197,-0.1158,-0.1123,-0.1109,-0.1069,-0.1037,-0.1019,-0.101,-0.0991,-0.1009,-0.0995,-0.1022,-0.1033,-0.1042,-0.1046,-0.1052,-0.1063,-0.0945,-0.0945,-0.0945,0,0,-0.1381,-0.134,-0.1339,-0.1298,-0.1269,-0.1261,-0.1197,-0.1191,-0.1184,-0.1108,-0.1105,-0.1075,-0.1034,-0.1043,-0.1045,-0.102,-0.1075,-0.1048,-0.1055,-0.1054,-0.1058,-0.1069,-0.1079,-0.0948,-0.0947,-0.0947,0,0,-0.1459,-0.1428,-0.1437,-0.141,-0.1366,-0.1326,-0.1329,-0.1274,-0.1251,-0.1246,-0.1189,-0.118,-0.1152,-0.1125,-0.1108,-0.1174,-0.1131,-0.117,-0.1225,-0.1232,-0.1241,-0.1249,-0.1272,-0.1281,-0.1174,-0.1174,-0.1174,0,-0.152,-0.1506,-0.1448,-0.1445,-0.1428,-0.1359,-0.1368,-0.1344,-0.1297,-0.1287,-0.126,-0.1223,-0.1191,-0.1192,-0.1208,-0.1196,-0.1196,-0.1176,-0.1244,-0.1252,-0.1258,-0.1279,-0.1288,-0.1179,-0.1179,-0.1178,-0.1178,0,-0.1583,-0.1574,-0.1587,-0.1543,-0.1528,-0.1531,-0.1473,-0.1464,-0.1427,-0.139,-0.1385,-0.1344,-0.1315,-0.1312,-0.1276,-0.1308,-0.1294,-0.1257,-0.1209,-0.1276,-0.1294,-0.1302,-0.1186,-0.1184,-0.1183,-0.1182,0,0,-0.1717,-0.1641,-0.1646,-0.1625,-0.1572,-0.1563,-0.1563,-0.1534,-0.1528,-0.1498,-0.1495,-0.1473,-0.1438,-0.1418,-0.1378,-0.1384,-0.1438,-0.1346,-0.1344,-0.1364,-0.147,-0.1498,-0.1508,-0.1409,-0.1411,-0.1412,-0.1473,0,-0.1785,-0.1781,-0.1728,-0.1738,-0.1728,-0.1662,-0.1661,-0.1629,-0.1594,-0.158,-0.1541,-0.1526,-0.1481,-0.1469,-0.1472,-0.1431,-0.1458,-0.1426,-0.1406,-0.1406,-0.1418,-0.1518,-0.1547,-0.1607,-0.148,-0.1481,-0.1482,0,-0.1864,-0.1838,-0.1848,-0.1793,-0.1787,-0.1788,-0.1756,-0.1744,-0.1705,-0.1679,-0.1657,-0.1611,-0.1606,-0.1561,-0.1553,-0.1532,-0.1521,-0.1499,-0.15,-0.1496,-0.1448,-0.1516,-0.1625,-0.1634,-0.1493,-0.1492,-0.1491,0,-0.196,-0.1928,-0.1928,-0.1912,-0.1849,-0.1851,-0.1825,-0.1784,-0.1769,-0.1742,-0.1732,-0.1705,-0.169,-0.1669,-0.1617,-0.1589,-0.1614,-0.1565,-0.1592,-0.1593,-0.16,-0.16,-0.1708,-0.1594,-0.1594,-0.1593,-0.1593,0,-0.2041,-0.2049,-0.1971,-0.1971,-0.1978,-0.1917,-0.1925,-0.1892,-0.1856,-0.1849,-0.179,-0.1784,-0.1715,-0.1701,-0.166,-0.1659,-0.1653,-0.1631,-0.162,-0.1636,-0.1639,-0.1628,-0.1622,-0.1596,-0.1595,-0.1595,-0.1594,0,-0.215,-0.2098,-0.2094,-0.2034,-0.2019,-0.2027,-0.1975,-0.1973,-0.1934,-0.1925,-0.192,-0.1859,-0.1839,-0.1785,-0.1752,-0.1724,-0.1734,-0.1714,-0.1748,-0.1741,-0.177,-0.1767,-0.1874,-0.1884,-0.1764,-0.1766,-0.1767,0,-0.2205,-0.2209,-0.215,-0.214,-0.2117,-0.2103,-0.2087,-0.2027,-0.2014,-0.1969,-0.1972,-0.1948,-0.1925,-0.1897,-0.185,-0.1824,-0.1802,-0.1841,-0.1797,-0.1813,-0.1801,-0.1801,-0.1801,-0.185,-0.1852,-0.1853,-0.1854,0,-0.2308,-0.2281,-0.2262,-0.2233,-0.2217,-0.2191,-0.2162,-0.2158,-0.209,-0.2078,-0.2057,-0.204,-0.2006,-0.1982,-0.1948,-0.192,-0.1876,-0.1868,-0.1873,-0.1889,-0.1908,-0.1897,-0.1773,-0.1866,-0.1865,-0.1864,-0.1863,-0.1863,-0.239,-0.2391,-0.2349,-0.2329,-0.23,-0.2275,-0.2269,-0.2229,-0.2211,-0.2178,-0.2144,-0.2127,-0.2086,-0.2036,-0.2011,-0.1997,-0.1973,-0.198,-0.1982,-0.1984,-0.1991,-0.1911,-0.1991,-0.199,-0.199,-0.1989,-0.1989,0,-0.2489,-0.2458,-0.2441,-0.2402,-0.2386,-0.2346,-0.2311,-0.2301,-0.2286,-0.2252,-0.2231,-0.2207,-0.2183,-0.2134,-0.2106,-0.2103,-0.2082,-0.2098,-0.2097,-0.2091,-0.2014,-0.2013,-0.2115,-0.2115,-0.2115,-0.2115,-0.2115,-0.2115,-0.2539,-0.2537,-0.2506,-0.2489,-0.2458,-0.2441,-0.2425,-0.24,-0.2373,-0.2348,-0.2328,-0.2296,-0.2255,-0.2224,-0.22,-0.2186,-0.2178,-0.22,-0.218,-0.2109,-0.2097,-0.2085,-0.2084,-0.2199,-0.22,-0.2258,-0.2258,-0.2259]}]]